This is the latest recevied weather packets stored in our database for station/object K9RCP-24. If no packets are shown the sender has not sent any weather packets the latest 10 day(s).
| Time | Temp. | Humidity | Pressure | Rain* | Wind** | Luminosity | Snow |
|---|---|---|---|---|---|---|---|
| 1777580277 | 23.89° C | 38% | 1021.3 hPa | 6.35 mm | - | - | - |
| 1777580024 | 23.89° C | 40% | 1021.7 hPa | 6.35 mm | - | - | - |
| 1777579901 | 23.89° C | 38% | 1021.7 hPa | 6.35 mm | - | - | - |
| 1777579651 | 23.89° C | 39% | 1021.7 hPa | 6.35 mm | - | - | - |
| 1777578967 | 23.89° C | 39% | 1021.7 hPa | 0 mm | - | - | - |
| 1777578436 | 23.89° C | 44% | 1021.7 hPa | 0 mm | - | - | - |
| 1777577906 | 23.89° C | 45% | 1022 hPa | 0 mm | - | - | - |
| 1777577500 | 22.78° C | 45% | 1022 hPa | 0 mm | - | - | - |
| 1777577251 | 22.22° C | 48% | 1022 hPa | 0 mm | - | - | - |
| 1777576845 | 22.78° C | 46% | 1022.4 hPa | 0 mm | - | - | - |
| 1777576719 | 22.22° C | 48% | 1022 hPa | 0 mm | - | - | - |
| 1777576466 | 22.22° C | 50% | 1022.4 hPa | 0 mm | - | - | - |
| 1777575689 | 21.11° C | 50% | 1022.4 hPa | 0 mm | - | - | - |
| 1777575542 | 21.11° C | 50% | 1022.4 hPa | 0 mm | - | - | - |
| 1777575282 | 21.11° C | 50% | 1022.4 hPa | 0 mm | - | - | - |
| 1777573254 | 20° C | 50% | 1022.4 hPa | 0 mm | - | - | - |
| 1777572135 | 20° C | 53% | 1022.7 hPa | 0 mm | - | - | - |
| 1777572011 | 19.44° C | 53% | 1022.7 hPa | 0 mm | - | - | - |
| 1777570162 | 18.33° C | 55% | 1022.7 hPa | 0 mm | - | - | - |
| 1777569914 | 17.78° C | 56% | 1023 hPa | 0 mm | - | - | - |
| 1777569631 | 17.22° C | 57% | 1023 hPa | 0 mm | - | - | - |
| 1777569205 | 17.22° C | 59% | 1023 hPa | 0 mm | - | - | - |
| 1777568083 | 15.56° C | 61% | 1023 hPa | 0.51 mm | - | - | - |
| 1777567670 | 15.56° C | 63% | 1023 hPa | 0.51 mm | - | - | - |
| 1777567139 | 15° C | 65% | 1023 hPa | 0.51 mm | - | - | - |
* Rain latest hour (hover to see other rain measurements)
** Current wind speed in m/s (hover to see current wind gust speed)